• In Netherlands
  • List of Countries
  • For 7 days
  • Water Temperature
  • Satellite Maps
  • Weather Map
  • Weather Widgets
  • user-avatar
    Login

    Hourly Weather Rechytsa

    Today, 30 March, Thursday

    Time Temperature Precipitation Wind Pressure Humidity
    00:00 +5°C° 0 mm 1 mps 746 mmHg 91%
    01:00 +4°C° 0 mm 2 mps 747 mmHg 89%
    02:00 +3°C° 0 mm 2 mps 748 mmHg 86%
    03:00 +1°C° 0 mm 3 mps 748 mmHg 85%
    04:00 +1°C° 0 mm 3 mps 749 mmHg 84%
    05:00 -1°C° 0 mm 4 mps 750 mmHg 84%
    06:00 -1°C° 0 mm 4 mps 751 mmHg 79%
    07:00 -1°C° 0 mm 4 mps 752 mmHg 75%
    08:00 -1°C° 0 mm 5 mps 753 mmHg 67%
    09:00 0°C° 0 mm 5 mps 754 mmHg 59%
    10:00 +1°C° 0 mm 5 mps 755 mmHg 51%
    11:00 +3°C° 0 mm 4 mps 756 mmHg 44%
    12:00 +4°C° 0 mm 4 mps 756 mmHg 41%
    13:00 +4°C° 0 mm 4 mps 757 mmHg 38%
    14:00 +5°C° 0 mm 4 mps 757 mmHg 35%
    15:00 +4°C° 0 mm 3 mps 757 mmHg 37%
    16:00 +5°C° 0 mm 2 mps 758 mmHg 39%
    17:00 +6°C° 0 mm 1 mps 758 mmHg 41%
    18:00 +4°C° 0 mm 1 mps 759 mmHg 45%
    19:00 +3°C° 0 mm 1 mps 759 mmHg 49%
    20:00 0°C° 0 mm 0 mps 759 mmHg 54%
    21:00 +1°C° 0 mm 1 mps 760 mmHg 54%
    22:00 +1°C° 0 mm 1 mps 760 mmHg 54%
    23:00 -1°C° 0 mm 2 mps 760 mmHg 54%

    Tomorrow, 31 March, Friday

    Time Temperature Precipitation Wind Pressure Humidity
    00:00 -1°C° 0 mm 2 mps 760 mmHg 56%
    01:00 -1°C° 0 mm 2 mps 760 mmHg 58%
    02:00 -1°C° 0 mm 2 mps 760 mmHg 61%
    03:00 -1°C° 0 mm 3 mps 760 mmHg 62%
    04:00 -1°C° 0 mm 3 mps 759 mmHg 62%
    05:00 -1°C° 0 mm 3 mps 759 mmHg 63%
    06:00 -1°C° 0 mm 4 mps 758 mmHg 62%
    07:00 0°C° 0 mm 5 mps 758 mmHg 60%
    08:00 +1°C° 0 mm 5 mps 757 mmHg 59%
    09:00 +1°C° 0.4 mm 6 mps 757 mmHg 64%
    10:00 +1°C° 0.4 mm 6 mps 756 mmHg 68%
    11:00 +2°C° 0.4 mm 6 mps 755 mmHg 73%
    12:00 +2°C° 0.6 mm 6 mps 754 mmHg 78%
    13:00 +2°C° 0.6 mm 6 mps 753 mmHg 83%
    14:00 +3°C° 0.6 mm 6 mps 753 mmHg 88%
    15:00 +3°C° 0.5 mm 5 mps 752 mmHg 90%
    16:00 +5°C° 0.5 mm 5 mps 752 mmHg 93%
    17:00 +5°C° 0.5 mm 4 mps 751 mmHg 95%
    18:00 +6°C° 0.2 mm 4 mps 751 mmHg 96%
    19:00 +6°C° 0.2 mm 4 mps 751 mmHg 97%
    20:00 +6°C° 0.2 mm 4 mps 751 mmHg 98%
    21:00 +7°C° 0.1 mm 3 mps 752 mmHg 98%
    22:00 +8°C° 0.1 mm 3 mps 752 mmHg 98%
    23:00 +8°C° 0.1 mm 3 mps 752 mmHg 98%

    Day after tomorrow, 1 April, Saturday

    Time Temperature Precipitation Wind Pressure Humidity
    00:00 +7°C° 0 mm 2 mps 752 mmHg 98%
    01:00 +7°C° 0 mm 2 mps 752 mmHg 99%
    02:00 +7°C° 0 mm 2 mps 752 mmHg 99%
    03:00 +7°C° 0 mm 2 mps 753 mmHg 99%
    04:00 +8°C° 0 mm 1 mps 753 mmHg 99%
    05:00 +7°C° 0 mm 1 mps 753 mmHg 99%
    06:00 +8°C° 0 mm 1 mps 753 mmHg 97%
    07:00 +8°C° 0 mm 1 mps 754 mmHg 95%
    08:00 +8°C° 0 mm 0 mps 754 mmHg 94%
    09:00 +9°C° 0 mm 0 mps 754 mmHg 88%
    10:00 +10°C° 0 mm 0 mps 754 mmHg 82%
    11:00 +12°C° 0 mm 0 mps 755 mmHg 76%
    12:00 +12°C° 0.1 mm 0 mps 754 mmHg 77%
    13:00 +13°C° 0.1 mm 1 mps 754 mmHg 77%
    14:00 +13°C° 0.1 mm 1 mps 754 mmHg 77%
    15:00 +13°C° 0 mm 1 mps 754 mmHg 80%
    16:00 +13°C° 0 mm 1 mps 754 mmHg 83%
    17:00 +13°C° 0 mm 1 mps 753 mmHg 85%
    18:00 +12°C° 0 mm 2 mps 754 mmHg 89%
    19:00 +10°C° 0 mm 2 mps 754 mmHg 93%
    20:00 +9°C° 0 mm 2 mps 754 mmHg 97%
    21:00 +9°C° 0.1 mm 2 mps 754 mmHg 97%
    22:00 +8°C° 0.1 mm 2 mps 754 mmHg 97%
    23:00 +8°C° 0.1 mm 2 mps 754 mmHg 98%

    2 April, Sunday

    Time Temperature Precipitation Wind Pressure Humidity
    00:00 +8°C° 0 mm 2 mps 754 mmHg 98%
    01:00 +8°C° 0 mm 2 mps 753 mmHg 98%
    02:00 +8°C° 0 mm 2 mps 753 mmHg 98%
    03:00 +8°C° 0 mm 2 mps 753 mmHg 98%
    04:00 +7°C° 0 mm 2 mps 753 mmHg 98%
    05:00 +7°C° 0 mm 2 mps 753 mmHg 98%
    06:00 +8°C° 0 mm 2 mps 753 mmHg 93%
    07:00 +9°C° 0 mm 2 mps 753 mmHg 88%
    08:00 +10°C° 0 mm 3 mps 753 mmHg 83%
    09:00 +12°C° 0 mm 3 mps 753 mmHg 78%
    10:00 +13°C° 0 mm 3 mps 753 mmHg 72%
    11:00 +16°C° 0 mm 3 mps 753 mmHg 66%
    12:00 +17°C° 0 mm 3 mps 753 mmHg 62%
    13:00 +18°C° 0 mm 3 mps 752 mmHg 57%
    14:00 +19°C° 0 mm 3 mps 752 mmHg 52%
    15:00 +18°C° 0 mm 3 mps 752 mmHg 56%
    16:00 +17°C° 0 mm 2 mps 751 mmHg 60%
    17:00 +17°C° 0 mm 2 mps 751 mmHg 64%
    18:00 +15°C° 0 mm 2 mps 751 mmHg 69%
    19:00 +14°C° 0 mm 2 mps 751 mmHg 75%
    20:00 +12°C° 0 mm 2 mps 751 mmHg 81%
    21:00 +12°C° 0 mm 2 mps 751 mmHg 84%
    22:00 +10°C° 0 mm 2 mps 751 mmHg 86%
    23:00 +9°C° 0 mm 2 mps 751 mmHg 88%

    3 April, Monday

    Time Temperature Precipitation Wind Pressure Humidity
    00:00 +9°C° 0 mm 2 mps 751 mmHg 90%
    01:00 +9°C° 0 mm 2 mps 750 mmHg 91%
    02:00 +8°C° 0 mm 2 mps 750 mmHg 92%
    03:00 +8°C° 0 mm 2 mps 750 mmHg 93%
    04:00 +7°C° 0 mm 2 mps 750 mmHg 93%
    05:00 +7°C° 0 mm 2 mps 750 mmHg 94%
    06:00 +8°C° 0 mm 2 mps 750 mmHg 88%
    07:00 +9°C° 0 mm 2 mps 750 mmHg 82%
    08:00 +12°C° 0 mm 2 mps 750 mmHg 76%
    09:00 +13°C° 0 mm 2 mps 750 mmHg 71%
    10:00 +15°C° 0 mm 2 mps 749 mmHg 65%
    11:00 +17°C° 0 mm 2 mps 749 mmHg 59%
    12:00 +17°C° 0 mm 2 mps 749 mmHg 57%
    13:00 +18°C° 0 mm 2 mps 749 mmHg 54%
    14:00 +19°C° 0 mm 2 mps 749 mmHg 52%
    15:00 +18°C° 0.1 mm 2 mps 749 mmHg 57%
    16:00 +18°C° 0.1 mm 2 mps 749 mmHg 62%
    17:00 +17°C° 0.1 mm 2 mps 750 mmHg 67%
    18:00 +15°C° 0.4 mm 2 mps 750 mmHg 74%
    19:00 +13°C° 0.4 mm 3 mps 751 mmHg 82%
    20:00 +11°C° 0.4 mm 4 mps 751 mmHg 90%
    21:00 +10°C° 0.1 mm 4 mps 752 mmHg 89%
    22:00 +10°C° 0.1 mm 4 mps 752 mmHg 89%
    23:00 +8°C° 0.1 mm 5 mps 753 mmHg 89%

    4 April, Tuesday

    Time Temperature Precipitation Wind Pressure Humidity
    00:00 +7°C° 0 mm 5 mps 753 mmHg 88%
    01:00 +7°C° 0 mm 5 mps 754 mmHg 87%
    02:00 +6°C° 0 mm 5 mps 754 mmHg 87%
    03:00 +6°C° 0 mm 5 mps 755 mmHg 86%
    04:00 +5°C° 0 mm 5 mps 755 mmHg 86%
    05:00 +5°C° 0 mm 5 mps 756 mmHg 86%
    06:00 +5°C° 0 mm 5 mps 757 mmHg 85%
    07:00 +5°C° 0 mm 5 mps 757 mmHg 84%
    08:00 +5°C° 0 mm 5 mps 758 mmHg 84%
    09:00 +5°C° 0 mm 5 mps 758 mmHg 81%
    10:00 +6°C° 0 mm 5 mps 759 mmHg 78%
    11:00 +6°C° 0 mm 5 mps 759 mmHg 75%
    12:00 +6°C° 0 mm 4 mps 759 mmHg 73%
    13:00 +7°C° 0 mm 4 mps 760 mmHg 71%
    14:00 +7°C° 0 mm 4 mps 760 mmHg 69%
    15:00 +7°C° 0 mm 4 mps 760 mmHg 70%
    16:00 +8°C° 0 mm 3 mps 760 mmHg 71%
    17:00 +8°C° 0 mm 3 mps 760 mmHg 72%
    18:00 +7°C° 0 mm 3 mps 760 mmHg 75%
    19:00 +5°C° 0 mm 3 mps 761 mmHg 79%
    20:00 +5°C° 0 mm 3 mps 761 mmHg 82%
    21:00 +4°C° 0 mm 3 mps 761 mmHg 83%
    22:00 +4°C° 0 mm 3 mps 761 mmHg 84%
    23:00 +4°C° 0 mm 3 mps 761 mmHg 85%
    Show more